Weather History for Kokomo, IN

Change the Weather History Date:

Monday, May 20, 2013

  Actual Average (KGUS) Record (KGUS)
Temperature  
Mean Temperature 76 °F -  
Max Temperature 84 °F 69 °F 89 °F (2012)
Min Temperature 69 °F 52 °F 39 °F (2002)
Cooling Degree Days 12    
Growing Degree Days 26 (Base 50)    
Moisture  
Dew Point 67 °F    
Average Humidity 73    
Maximum Humidity 94    
Minimum Humidity 55    
Precipitation  
Precipitation 0.00 in - - ()
Sea Level Pressure  
Sea Level Pressure 29.86 in    
Wind  
Wind Speed 12 mph (SSW)    
Max Wind Speed 22 mph    
Max Gust Speed 28 mph    
Visibility 9 miles    
Events      
Averages and records for this station are not official NWS values.
T = Trace of Precipitation, MM = Missing Value Source: NWS Daily Summary

Daily Weather History Graph

Daily Weather History Graph

Search for Another Location

Airport:

Trip Planner

Search our weather history database for the weather conditions in past years. The results will help you decide how hot, cold, wet, or windy it might be!

Date:

Astronomy

May. 20, 2013 Rise Set
Actual Time 5:23 AM CDT 7:59 PM CDT
Civil Twilight 4:51 AM CDT 8:30 PM CDT
Nautical Twilight 4:12 AM CDT 9:09 PM CDT
Astronomical Twilight 3:28 AM CDT 9:54 PM CDT
Moon 3:04 PM CDT (5/20) 2:18 AM CDT (5/20)
Length of Visible Light 15h 38m
Length of Day
14h 35m
Waxing Gibbous, 75% of the Moon is Illuminated
May 20
Waxing Gibbous
May 24
Full
May 31
Last Quarter
Jun 8
New
Jun 16
First Quarter

Hourly Weather History & Observations

Time (CDT) Temp. Heat Index Dew Point Humidity Pressure Visibility Wind Dir Wind Speed Gust Speed Precip Events Conditions
12:15 AM 73.4 °F - 64.4 °F 73% 29.87 in 10.0 mi South 11.5 mph - N/A   Mostly Cloudy
12:35 AM 73.4 °F - 64.4 °F 73% 29.87 in 10.0 mi South 11.5 mph - N/A   Mostly Cloudy
12:55 AM 73.4 °F - 66.2 °F 78% 29.87 in 10.0 mi South 9.2 mph - N/A   Mostly Cloudy
1:15 AM 73.4 °F - 66.2 °F 78% 29.88 in 10.0 mi South 9.2 mph - N/A   Scattered Clouds
1:35 AM 71.6 °F - 66.2 °F 83% 29.86 in 10.0 mi South 11.5 mph - N/A   Partly Cloudy
1:55 AM 71.6 °F - 66.2 °F 83% 29.86 in 10.0 mi South 10.4 mph - N/A   Clear
2:15 AM 71.6 °F - 66.2 °F 83% 29.86 in 10.0 mi South 9.2 mph - N/A   Clear
2:35 AM 71.6 °F - 66.2 °F 83% 29.86 in 10.0 mi South 9.2 mph - N/A   Clear
3:15 AM 69.8 °F - 66.2 °F 88% 29.86 in 8.0 mi South 9.2 mph - N/A   Clear
3:35 AM 71.6 °F - 66.2 °F 83% 29.86 in 7.0 mi South 9.2 mph - N/A   Clear
3:55 AM 69.8 °F - 66.2 °F 88% 29.86 in 6.0 mi South 8.1 mph - N/A   Clear
4:15 AM 69.8 °F - 66.2 °F 88% 29.85 in 5.0 mi South 9.2 mph - N/A   Clear
4:35 AM 69.8 °F - 66.2 °F 88% 29.85 in 5.0 mi South 8.1 mph - N/A   Clear
4:55 AM 69.8 °F - 66.2 °F 88% 29.85 in 5.0 mi South 9.2 mph - N/A   Clear
5:15 AM 69.8 °F - 66.2 °F 88% 29.87 in 5.0 mi SSW 9.2 mph - N/A   Partly Cloudy
5:35 AM 69.8 °F - 68.0 °F 94% 29.88 in 3.0 mi SSW 8.1 mph - N/A   Partly Cloudy
5:55 AM 69.8 °F - 68.0 °F 94% 29.89 in 3.0 mi SSW 9.2 mph - N/A   Scattered Clouds
6:15 AM 71.6 °F - 68.0 °F 88% 29.89 in 3.0 mi SSW 10.4 mph - N/A   Partly Cloudy
6:35 AM 71.6 °F - 68.0 °F 88% 29.90 in 5.0 mi SSW 9.2 mph - N/A   Scattered Clouds
6:55 AM 71.6 °F - 69.8 °F 94% 29.90 in 6.0 mi SSW 11.5 mph - N/A   Clear
7:15 AM 73.4 °F - 69.8 °F 88% 29.90 in 7.0 mi SSW 12.7 mph - N/A   Clear
7:35 AM 73.4 °F - 69.8 °F 88% 29.91 in 8.0 mi SW 15.0 mph - N/A   Clear
7:55 AM 75.2 °F - 69.8 °F 83% 29.91 in 9.0 mi SW 17.3 mph 23.0 mph N/A   Clear
8:15 AM 75.2 °F - 69.8 °F 83% 29.91 in 10.0 mi SW 15.0 mph 21.9 mph N/A   Scattered Clouds
8:35 AM 77.0 °F - 69.8 °F 78% 29.90 in 10.0 mi SW 16.1 mph - N/A   Mostly Cloudy
8:55 AM 75.2 °F - 69.8 °F 83% 29.90 in 10.0 mi SW 13.8 mph 19.6 mph N/A   Overcast
9:15 AM 77.0 °F - 69.8 °F 78% 29.88 in 10.0 mi SSW 12.7 mph - N/A   Overcast
9:35 AM 78.8 °F - 69.8 °F 74% 29.88 in 10.0 mi SSW 12.7 mph - N/A   Mostly Cloudy
9:55 AM 78.8 °F - 69.8 °F 74% 29.89 in 10.0 mi SW 15.0 mph - N/A   Mostly Cloudy
10:35 AM 78.8 °F - 69.8 °F 74% 29.91 in 10.0 mi SSW 15.0 mph - N/A   Mostly Cloudy
10:55 AM 80.6 °F 83.2 °F 68.0 °F 65% 29.90 in 10.0 mi SW 12.7 mph - N/A   Mostly Cloudy
11:15 AM - - - N/A% 29.89 in 10.0 mi SSW 16.1 mph - N/A   Scattered Clouds
11:35 AM 82.4 °F 86.3 °F 69.8 °F 66% 29.89 in 10.0 mi SSW 15.0 mph 20.7 mph N/A   Scattered Clouds
11:55 AM - - - N/A% 29.88 in 10.0 mi SSW 18.4 mph 24.2 mph N/A   Partly Cloudy
12:15 PM 84.2 °F 87.3 °F 68.0 °F 58% 29.87 in 10.0 mi SSW 17.3 mph - N/A   Partly Cloudy
12:35 PM 84.2 °F 87.3 °F 68.0 °F 58% 29.85 in 10.0 mi South 13.8 mph 19.6 mph N/A   Scattered Clouds
12:55 PM 84.2 °F 87.3 °F 68.0 °F 58% 29.86 in 10.0 mi South 17.3 mph 21.9 mph N/A   Scattered Clouds
1:15 PM 84.2 °F 87.3 °F 68.0 °F 58% 29.87 in 10.0 mi South 17.3 mph 25.3 mph N/A   Mostly Cloudy
1:55 PM 84.2 °F 86.6 °F 66.2 °F 55% 29.86 in 10.0 mi South 13.8 mph 25.3 mph N/A   Scattered Clouds
2:15 PM 84.2 °F 87.3 °F 68.0 °F 58% 29.86 in 10.0 mi SSW 20.7 mph 27.6 mph N/A   Partly Cloudy
2:35 PM 84.2 °F 87.3 °F 68.0 °F 58% 29.86 in 10.0 mi SSW 17.3 mph - N/A   Scattered Clouds
2:55 PM 82.4 °F 84.6 °F 66.2 °F 58% 29.86 in 10.0 mi SSW 16.1 mph 26.5 mph N/A   Partly Cloudy
3:15 PM 82.4 °F 84.6 °F 66.2 °F 58% 29.84 in 10.0 mi South 19.6 mph 23.0 mph N/A   Partly Cloudy
3:35 PM 80.6 °F 82.7 °F 66.2 °F 61% 29.85 in 10.0 mi SSW 15.0 mph 24.2 mph N/A   Clear
3:55 PM 82.4 °F 85.4 °F 68.0 °F 62% 29.86 in 10.0 mi SSW 17.3 mph 23.0 mph N/A   Clear
4:15 PM 82.4 °F 85.4 °F 68.0 °F 62% 29.86 in 10.0 mi SW 18.4 mph - N/A   Scattered Clouds
4:35 PM 84.2 °F 86.6 °F 66.2 °F 55% 29.86 in 10.0 mi SW 21.9 mph 25.3 mph N/A   Scattered Clouds
4:55 PM 82.4 °F 84.6 °F 66.2 °F 58% 29.86 in 10.0 mi SW 19.6 mph - N/A   Scattered Clouds
5:15 PM 82.4 °F 84.6 °F 66.2 °F 58% 29.85 in 10.0 mi SSW 19.6 mph - N/A   Scattered Clouds
5:35 PM 82.4 °F 84.6 °F 66.2 °F 58% 29.84 in 10.0 mi SW 17.3 mph 25.3 mph N/A   Clear
5:55 PM 82.4 °F 84.6 °F 66.2 °F 58% 29.83 in 10.0 mi SW 15.0 mph 19.6 mph N/A   Mostly Cloudy
6:15 PM 82.4 °F 84.6 °F 66.2 °F 58% 29.83 in 10.0 mi SSW 11.5 mph 21.9 mph N/A   Mostly Cloudy
6:35 PM 82.4 °F 84.6 °F 66.2 °F 58% 29.82 in 10.0 mi SSW 12.7 mph - N/A   Clear
6:55 PM 82.4 °F 84.6 °F 66.2 °F 58% 29.82 in 10.0 mi SSW 15.0 mph 20.7 mph N/A   Clear
7:15 PM - - - N/A% 29.81 in 10.0 mi SSW 15.0 mph 19.6 mph N/A   Clear
7:35 PM 78.8 °F - 64.4 °F 61% 29.80 in 10.0 mi South 11.5 mph - N/A   Clear
7:55 PM 78.8 °F - 64.4 °F 61% 29.81 in 10.0 mi SSW 11.5 mph - N/A   Clear
8:15 PM 78.8 °F - 64.4 °F 61% 29.81 in 10.0 mi SSW 9.2 mph - N/A   Clear
8:35 PM 75.2 °F - 66.2 °F 73% 29.82 in 10.0 mi South 6.9 mph - N/A   Clear
9:15 PM 75.2 °F - 66.2 °F 73% 29.82 in 10.0 mi South 8.1 mph - N/A   Clear
9:35 PM 73.4 °F - 66.2 °F 78% 29.84 in 10.0 mi South 9.2 mph - N/A   Clear
9:55 PM 73.4 °F - 66.2 °F 78% 29.82 in 10.0 mi SSE 9.2 mph - N/A   Clear
10:15 PM 71.6 °F - 66.2 °F 83% 29.84 in 10.0 mi South 6.9 mph - N/A   Clear
10:35 PM 71.6 °F - 66.2 °F 83% 29.83 in 10.0 mi South 8.1 mph - N/A   Clear
10:55 PM 73.4 °F - 66.2 °F 78% 29.82 in 10.0 mi South 9.2 mph - N/A   Clear
11:15 PM 73.4 °F - 66.2 °F 78% 29.81 in 10.0 mi South 10.4 mph - N/A   Clear
11:35 PM 73.4 °F - 66.2 °F 78% 29.81 in 10.0 mi South 11.5 mph - N/A   Clear
11:55 PM 73.4 °F - 66.2 °F 78% 29.82 in 10.0 mi South 10.4 mph - N/A   Clear